DEIMOS-1

Last updated on Tue Jul 01 2025 00:02:29 GMT+0000 (Coordinated Universal Time)

1 35681U 09041A 25181.57048295 .00000382 00000+0 64340-4 0 9997 2 35681 97.7020 350.0441 0000595 152.1594 207.9647 14.74621909855054
UTC large
Height (km)
Speed (km/s)
/
Latitude / Longitude
Inclination (degrees)
Orbital Period (minutes)
Azimuth
Elevation
Range (km)
Doppler Factor

Next 0 passes for location: London (51.5072 / 0.1276)

Sorry there are no passes over London.